ROMMA est une association bénévole à but non lucratif. Votre soutien est indispensable : ADHERER à ROMMA ou FAIRE un DON

Chambon - (38, Isère)

Oisans (2460 m)   Longitude: 06° 10' 42" E   Latitude: 45° 01' 32" N Station partenaire n°803
 

Détail journalier du     <<     >>

Température Humidité Vent Dir Rafale Dir. rafale Neige 1 Neige 2
Heure (°C) (%) (km/h) (km/h) (cm) (cm)
01:00 8.54311SSO30SSO03
02:00 8.94015S34S03
03:00 8.53813S32SSO03
04:00 8.23911S34S03
05:00 7.93911S33S03
06:00 7.73510S30S03
07:00 8.32513S44SSO03
08:00 8.22616SSO43SSO03
09:00 8.42617S47SSO03
10:00 7.54112S36S02
11:00 9.04713S40S02
12:00 10.05015S44S02
13:00 10.74816S51SSO02
14:00 10.45214SSO44SSO02
15:00 11.35016SSO42SSO02
16:00 10.44922S72S02
17:00 10.64536S75SSO02
18:00 9.15033SSO70SSO03
19:00 8.45123SSO59SSO02
20:00 8.44930SSO61SSO02
21:00 8.05423S61S03
22:00 7.46529S60SSO03
23:00 6.37522SSO60SSO03
minuit 7.36217SSO57SSO03

Graphique du 14-10-2019

 

Serveur OMMA